Wind_Speed
70 71 73 74 75 76 77 78 78 78 77 77 77 78 78 78 78 78 78 79 79 79 80 80 81 81 81 81 81 81 80 81 81 80 80 80 80 80 80 80 81 81 81 82 82 82 83 83 82 81 81 81
70 71 72 74 75 76 77 78 79 80 80 80 79 79 80 81 81 81 81 82 82 82 82 82 83 83 83 84 84 84 84 84 84 84 84 83 83 83 83 83 83 84 84 84 84 84 84 84 85 84 84 83
70 71 72 74 75 76 77 78 79 80 81 81 81 81 82 82 83 83 84 84 84 85 85 85 85 86 86 86 87 87 87 87 87 87 87 87 86 86 86 85 86 86 86 86 86 86 86 86 86 86 87 87
72 73 73 74 75 76 77 78 79 80 81 82 82 83 83 83 84 84 85 86 86 87 87 87 88 88 88 89 89 90 90 90 90 90 90 90 90 89 89 89 88 88 88 88 88 88 88 88 88 88 88 89
74 75 75 76 77 77 78 78 79 80 81 82 83 84 84 85 85 86 86 87 87 88 89 89 90 90 90 91 91 91 92 92 92 93 93 93 93 93 92 92 91 91 91 91 90 90 90 90 90 90 90 90
76 77 77 78 79 79 80 80 81 81 82 82 83 84 84 85 86 87 88 88 89 89 90 91 91 92 92 93 93 93 94 94 94 95 95 95 95 95 95 95 95 94 94 94 94 94 93 93 93 93 93 93
78 79 79 80 81 82 83 83 83 84 84 85 85 86 86 86 87 88 88 89 90 90 91 92 93 93 94 95 95 96 96 96 97 97 97 97 97 98 98 98 98 98 97 97 97 97 97 97 97 96 96 96
79 80 81 82 83 84 85 86 86 87 87 88 89 89 89 90 90 90 91 91 92 92 93 93 94 95 95 96 96 97 98 98 99 99 100 100 100 101 101 101 101 101 101 101 101 101 101 100 100 100 100 100
81 82 83 84 84 86 87 88 89 89 90 91 92 92 93 93 94 94 95 95 95 95 96 96 96 97 97 98 98 98 99 99 100 101 101 102 103 103 104 105 105 105 105 105 105 105 105 104 104 104 104 103
83 84 84 85 86 87 88 89 90 91 92 93 94 95 96 96 97 98 98 99 99 100 100 100 100 101 101 101 101 102 102 102 102 102 103 103 104 105 106 106 107 108 108 109 109 109 108 108 108 108 107 107
85 86 86 87 88 89 89 90 91 92 93 94 95 96 97 98 99 100 101 102 103 103 104 104 105 105 106 106 106 106 106 106 106 106 106 106 106 107 107 107 108 109 109 110 111 111 111 111 111 111 110 110
88 89 89 90 90 91 92 93 93 94 95 96 97 98 98 99 101 101 102 103 104 105 106 107 108 109 109 110 110 111 111 111 111 111 111 111 111 110 111 110 111 111 111 112 112 113 113 114 114 114 114 113
90 91 91 92 92 93 93 94 95 96 97 98 98 99 100 101 102 103 104 105 106 107 108 108 109 110 111 112 113 114 114 115 115 115 115 115 115 115 115 115 115 115 115 115 115 115 115 116 116 116 116 117
90 91 92 92 93 94 94 95 96 97 98 99 100 100 101 102 103 104 105 106 107 107 108 109 110 111 112 113 114 115 116 117 118 118 119 119 120 120 120 120 120 120 120 120 120 119 119 119 119 119 119 119
91 92 93 94 94 95 96 96 97 98 99 100 101 102 102 103 104 105 106 107 108 108 109 110 111 112 112 113 114 115 116 118 119 120 121 121 122 123 124 124 125 125 125 125 125 124 124 124 124 124 123 123
93 94 95 96 96 97 98 98 99 100 101 102 103 104 104 105 106 107 108 109 109 110 111 112 113 113 114 115 115 116 117 118 119 120 121 122 123 124 125 126 127 128 129 129 129 130 129 129 129 129 128 128
95 96 97 98 98 100 100 100 101 102 103 104 105 106 107 108 109 109 110 111 112 113 114 114 115 116 117 117 118 119 119 120 121 121 122 123 124 125 126 127 128 129 130 131 132 133 133 134 134 134 134 134
97 98 99 100 101 102 102 102 103 104 105 106 107 108 109 110 111 112 113 114 115 116 116 117 118 119 120 121 121 122 123 123 124 124 125 126 126 127 128 128 129 130 131 132 133 134 135 136 136 137 137 138
100 101 102 102 103 104 104 105 106 106 108 108 110 111 112 113 114 115 116 117 117 118 119 120 121 122 123 124 125 125 126 127 127 128 128 129 130 130 131 132 132 133 133 134 135 135 136 137 137 138 139 140
103 104 105 105 106 107 107 107 108 109 111 112 113 114 115 116 116 117 118 119 120 121 122 123 124 125 126 127 127 128 129 130 130 131 132 133 133 134 134 135 136 137 137 138 138 138 139 139 140 140 140 141
106 107 108 109 109 110 111 111 112 113 114 115 116 117 118 119 120 121 121 122 123 124 125 126 127 128 129 130 131 131 132 133 134 135 135 136 137 137 138 139 139 140 141 141 142 142 143 143 143 143 143 144
110 111 112 112 113 114 114 115 116 117 117 118 119 120 121 122 123 124 125 125 126 127 128 129 130 132 132 133 134 135 136 137 137 138 139 139 140 141 141 142 143 144 144 145 145 146 146 147 147 147 147 147
113 114 114 115 115 116 117 118 118 119 119 120 121 121 123 124 125 125 126 127 128 129 130 131 132 133 134 135 135 136 137 138 139 140 140 141 142 143 143 144 145 146 147 148 148 149 150 150 151 151 151 151
112 113 113 114 115 116 116 117 117 117 118 118 119 119 120 121 121 122 122 123 123 124 125 126 127 127 128 129 130 131 132 133 134 135 136 137 139 140 141 142 143 145 146 147 148 150 151 152 152 153 153 154
105 106 106 107 107 108 108 108 108 109 109 110 110 110 111 111 111 112 112 113 113 114 115 116 117 118 119 120 121 122 123 124 125 127 128 129 131 133 134 135 137 139 140 142 144 145 147 149 151 152 153 154
94 94 95 95 95 95 96 97 98 98 99 100 100 101 102 102 102 103 104 105 106 107 108 109 109 111 112 113 114 115 116 118 119 120 122 123 125 126 127 129 130 132 134 136 137 139 141 143 145 147 148 149
86 87 87 87 87 88 88 89 91 92 93 94 94 95 96 96 96 97 99 100 101 102 102 103 104 105 106 107 109 110 111 112 114 115 117 119 120 121 123 124 125 127 129 131 133 135 136 138 140 142 143 144
81 82 82 83 83 83 83 85 85 86 88 89 89 90 91 91 92 92 94 95 96 97 98 99 99 101 102 103 104 106 107 108 110 112 114 115 117 118 119 120 121 123 125 127 129 131 132 134 135 137 139 140
77 78 78 79 79 79 80 81 81 82 84 85 85 86 87 87 88 89 91 92 93 94 95 96 97 98 99 100 101 103 104 105 107 109 111 113 115 115 117 118 119 120 122 124 126 128 129 131 132 133 134 136
75 75 75 76 76 77 77 78 79 80 81 82 83 84 85 86 87 88 90 91 92 93 94 95 95 96 97 98 99 101 102 103 105 106 108 110 112 113 114 116 117 118 120 121 123 125 127 129 130 130 131 132
73 73 74 74 74 75 77 78 79 80 80 80 81 83 84 85 87 88 90 91 92 92 93 93 94 95 95 96 98 99 100 102 103 105 106 108 110 111 112 113 114 116 118 119 119 121 123 126 128 129 129 129
Wind_Direction
249 249 249 249 249 249 249 250 250 251 251 251 251 251 250 250 250 250 249 249 249 249 248 248 249 249 249 249 249 248 247 246 246 246 247 247 247 248 249 249 250 250 250 249 249 248 248 248 248 248 248 247
250 250 250 250 250 250 250 250 251 251 252 252 252 252 252 251 251 251 251 251 251 250 250 250 250 250 250 250 250 250 249 248 248 247 248 248 248 248 249 250 250 251 251 250 250 249 249 248 248 248 248 248
250 251 251 251 251 251 252 252 252 252 252 252 253 253 253 253 252 252 252 252 252 252 252 252 251 251 251 251 251 251 251 250 249 249 249 249 249 249 250 250 250 250 251 251 251 250 250 250 249 249 249 249
251 252 252 252 252 252 252 252 253 253 253 253 254 254 254 254 254 254 254 253 253 253 253 253 253 253 253 252 252 252 252 251 251 250 250 250 250 250 250 250 250 250 250 251 251 251 251 251 250 250 250 249
253 253 253 253 253 253 253 253 253 253 254 254 254 255 255 255 255 255 255 255 254 254 254 254 254 254 254 254 253 253 253 253 252 252 251 251 251 251 251 251 251 250 250 250 251 251 251 251 251 251 250 250
254 254 254 255 255 255 255 255 255 254 254 255 255 255 255 256 256 256 256 256 255 255 255 255 255 255 255 254 254 254 254 253 253 253 253 252 252 252 251 251 251 251 251 251 251 251 251 252 252 251 251 251
256 256 256 256 256 256 256 256 256 256 256 256 256 256 256 256 256 256 256 256 256 256 256 256 256 256 256 256 255 255 255 255 255 254 254 254 253 253 252 252 252 252 252 252 252 252 252 252 252 252 252 251
258 257 257 257 257 257 257 258 258 258 258 258 258 258 257 257 257 257 257 257 257 257 256 256 256 256 256 256 256 256 256 256 256 256 255 255 255 254 254 253 253 253 253 253 253 253 253 253 253 252 252 252
259 259 258 258 258 258 258 258 258 258 258 258 259 259 259 259 258 258 258 258 258 258 258 257 257 257 257 257 257 257 257 257 256 256 256 256 255 255 255 255 254 254 254 254 254 254 254 254 253 253 253 252
260 260 260 260 260 259 259 259 259 259 259 259 259 259 259 259 259 259 259 259 259 259 259 259 258 258 258 258 258 257 257 257 257 256 256 256 256 256 255 255 255 255 255 254 254 254 254 254 254 254 253 253
262 262 261 261 261 261 261 261 261 261 261 261 261 261 261 261 260 260 260 260 260 260 260 259 259 259 259 259 259 258 258 258 257 257 257 256 256 256 256 256 256 255 255 255 255 255 254 254 254 254 254 253
263 263 263 263 263 263 263 263 262 262 262 262 262 262 262 262 261 261 261 261 261 260 260 260 260 260 260 260 259 259 259 259 258 258 258 257 257 257 256 256 256 256 256 256 255 255 255 255 255 254 254 254
264 264 264 264 264 264 264 264 264 264 263 263 263 263 263 262 262 262 262 262 262 261 261 261 261 261 261 260 260 260 260 260 259 259 259 259 258 258 257 257 257 256 256 256 256 256 255 255 255 255 254 254
264 264 264 264 264 265 265 265 265 265 265 264 264 264 264 263 263 263 263 263 263 262 262 262 262 262 262 261 261 261 261 261 260 260 260 259 259 259 259 258 258 257 257 256 256 256 256 255 255 255 255 254
264 264 264 264 265 265 265 265 265 265 265 265 265 265 265 265 265 264 264 264 264 263 263 263 263 262 262 262 262 262 261 261 261 261 260 260 260 260 259 259 259 258 258 257 257 256 256 256 255 255 255 255
264 264 264 264 264 264 264 264 264 265 265 265 265 265 265 265 265 265 265 265 265 264 264 264 264 263 263 263 263 262 262 262 262 261 261 261 260 260 260 260 259 259 258 258 257 257 257 256 256 255 255 255
264 264 264 264 264 264 264 264 264 265 265 265 265 265 265 265 265 265 265 265 265 265 265 265 265 265 264 264 264 263 263 263 262 262 262 261 261 261 261 260 260 260 259 259 258 258 257 257 257 256 256 255
265 265 265 265 265 265 265 265 265 265 266 266 266 266 266 266 266 266 266 266 265 265 265 265 265 265 265 265 265 264 264 264 264 263 263 262 262 262 261 261 261 260 260 260 259 259 258 258 257 257 256 256
266 266 266 266 266 266 266 266 267 267 267 267 267 267 266 266 266 266 266 266 266 266 266 266 266 266 266 265 265 265 265 265 265 264 264 264 263 263 262 262 262 261 261 260 260 259 259 258 258 257 257 257
267 267 267 267 267 267 267 267 268 268 267 267 267 267 267 267 267 267 267 267 267 267 267 267 267 267 266 266 266 266 266 265 265 265 265 264 264 264 263 263 263 262 262 261 261 260 260 259 259 258 258 257
267 267 267 267 267 268 268 268 268 268 268 268 268 268 268 268 268 268 268 268 268 268 268 268 268 268 267 267 267 267 267 267 266 266 266 265 265 265 264 264 264 263 263 262 262 261 261 260 260 259 259 258
268 268 268 268 268 268 268 268 268 268 268 268 268 268 268 268 268 268 268 268 268 268 268 268 268 268 268 268 268 268 268 268 267 267 267 266 266 266 265 265 265 264 264 263 263 262 262 261 261 260 259 259
268 268 269 269 269 269 269 269 269 269 269 269 269 269 269 269 269 269 269 269 269 269 269 269 269 269 269 269 269 268 268 268 268 268 268 267 267 267 266 266 266 265 265 264 264 263 263 262 262 261 260 260
270 270 270 270 270 270 270 270 270 270 270 270 270 270 270 270 271 271 271 270 270 270 270 270 270 270 269 269 269 269 269 269 269 268 268 268 267 267 267 266 266 266 265 265 265 264 264 263 263 262 261 261
271 271 271 271 271 271 271 271 271 271 271 271 271 271 271 271 272 272 272 271 271 271 271 271 271 271 270 270 270 270 270 269 269 269 269 268 268 268 267 267 266 266 266 265 265 265 264 264 263 263 262 262
271 271 271 271 272 272 272 272 272 272 272 272 272 272 272 272 272 272 272 272 272 272 272 272 272 272 272 271 271 271 271 271 270 270 270 269 269 268 268 268 267 267 266 266 265 265 264 264 264 263 262 262
271 272 272 272 272 272 272 272 273 273 273 273 273 273 273 274 274 274 274 274 274 274 274 274 274 274 274 274 274 274 273 273 273 272 272 271 271 270 270 269 269 268 268 267 266 266 265 265 264 264 263 262
272 273 273 273 273 273 274 274 274 275 275 275 275 275 275 276 276 277 277 277 277 277 277 277 277 277 277 277 277 276 276 276 275 275 274 274 273 273 272 272 271 271 270 270 269 268 267 266 265 265 264 263
274 274 275 275 275 275 275 275 276 276 276 277 278 278 278 279 279 279 278 278 278 278 278 278 278 277 277 277 277 276 276 276 276 276 275 275 275 274 274 273 273 272 272 272 271 271 269 268 267 266 265 265
275 276 276 276 277 277 277 277 277 277 277 278 279 279 279 279 279 278 278 277 277 277 277 277 277 276 276 276 276 276 276 276 276 276 275 275 275 275 274 274 274 273 272 272 272 272 272 271 270 269 267 266
276 276 277 277 277 278 278 277 277 277 278 278 278 278 278 278 278 278 278 278 278 278 278 278 278 277 277 278 278 278 278 277 277 277 277 276 276 275 275 274 274 273 273 272 272 272 272 272 271 271 269 268
Height
10726 10727 10728 10728 10729 10730 10731 10732 10732 10733 10734 10735 10735 10736 10737 10737 10738 10739 10739 10740 10741 10742 10743 10744 10745 10745 10746 10747 10748 10750 10751 10752 10753 10754 10754 10755 10755 10756 10756 10757 10757 10758 10759 10761 10762 10764 10765 10767 10768 10770 10771 10773
10720 10721 10722 10722 10723 10724 10724 10725 10726 10726 10727 10728 10729 10729 10730 10731 10731 10732 10733 10733 10734 10735 10735 10737 10738 10738 10739 10740 10741 10742 10744 10745 10746 10747 10747 10748 10749 10749 10750 10750 10751 10751 10752 10753 10755 10756 10758 10759 10761 10762 10763 10765
10715 10715 10715 10716 10717 10717 10718 10718 10719 10719 10720 10721 10721 10722 10723 10723 10724 10725 10726 10726 10727 10727 10728 10729 10730 10731 10732 10733 10733 10734 10735 10737 10738 10739 10740 10741 10741 10742 10743 10743 10744 10744 10745 10745 10747 10748 10750 10751 10753 10754 10755 10757
10708 10708 10709 10709 10710 10710 10711 10711 10712 10712 10713 10714 10714 10715 10716 10716 10717 10718 10718 10719 10719 10720 10720 10721 10722 10723 10724 10725 10725 10726 10727 10728 10729 10730 10731 10732 10733 10734 10735 10735 10736 10736 10737 10738 10738 10740 10741 10742 10744 10746 10747 10749
10701 10702 10702 10702 10702 10703 10704 10704 10705 10705 10706 10706 10707 10707 10708 10708 10709 10709 10710 10710 10711 10712 10712 10713 10713 10714 10715 10716 10716 10717 10718 10719 10720 10721 10722 10723 10724 10725 10726 10727 10727 10728 10729 10729 10730 10731 10732 10733 10735 10737 10738 10740
10694 10694 10695 10695 10695 10695 10696 10697 10697 10698 10698 10698 10698 10699 10699 10699 10700 10700 10701 10701 10702 10702 10703 10703 10704 10704 10705 10706 10707 10707 10709 10709 10710 10711 10713 10714 10715 10716 10717 10718 10718 10719 10720 10721 10721 10722 10723 10724 10725 10727 10729 10730
10686 10687 10687 10687 10687 10687 10688 10688 10689 10689 10690 10690 10690 10690 10690 10690 10691 10691 10691 10692 10692 10693 10693 10694 10694 10695 10695 10696 10696 10697 10698 10699 10700 10701 10703 10704 10704 10705 10707 10707 10708 10709 10710 10711 10712 10713 10714 10715 10716 10717 10718 10720
10679 10679 10679 10679 10679 10679 10679 10680 10680 10680 10681 10681 10681 10681 10681 10681 10681 10682 10682 10682 10683 10683 10684 10684 10684 10684 10685 10685 10686 10686 10687 10688 10689 10690 10691 10693 10693 10694 10695 10696 10697 10698 10700 10701 10702 10703 10704 10705 10706 10707 10708 10709
10670 10670 10670 10670 10670 10670 10670 10670 10670 10671 10671 10671 10671 10671 10671 10671 10671 10672 10672 10672 10672 10673 10673 10674 10674 10674 10674 10675 10675 10675 10676 10677 10678 10678 10679 10681 10682 10682 10683 10684 10686 10686 10687 10689 10690 10691 10692 10693 10695 10696 10697 10698
10661 10661 10661 10661 10661 10661 10661 10661 10661 10661 10661 10661 10661 10661 10661 10661 10661 10661 10661 10662 10662 10662 10662 10663 10663 10663 10663 10663 10664 10664 10664 10665 10666 10666 10667 10668 10669 10670 10671 10672 10673 10674 10675 10676 10677 10679 10680 10681 10682 10684 10685 10686
10652 10652 10652 10652 10652 10652 10652 10651 10651 10651 10651 10651 10651 10651 10651 10651 10651 10650 10650 10651 10651 10651 10651 10651 10651 10651 10652 10652 10652 10652 10653 10653 10654 10654 10655 10656 10657 10658 10659 10659 10661 10662 10662 10663 10664 10666 10667 10668 10669 10671 10672 10673
10643 10642 10642 10643 10642 10642 10642 10642 10641 10641 10641 10641 10641 10640 10640 10640 10639 10639 10639 10639 10639 10639 10639 10640 10640 10640 10640 10640 10640 10640 10641 10641 10642 10642 10643 10644 10645 10646 10647 10647 10648 10649 10650 10651 10652 10653 10654 10655 10656 10658 10659 10660
10633 10633 10633 10633 10633 10633 10632 10632 10632 10631 10630 10630 10630 10629 10629 10628 10628 10628 10627 10628 10627 10627 10627 10628 10628 10628 10628 10628 10628 10628 10628 10629 10630 10630 10631 10632 10632 10633 10634 10634 10635 10636 10637 10638 10639 10639 10640 10642 10643 10644 10645 10647
10624 10623 10623 10623 10622 10622 10622 10621 10621 10620 10619 10619 10618 10618 10618 10617 10617 10616 10616 10616 10616 10615 10615 10615 10616 10616 10616 10615 10616 10616 10616 10616 10617 10617 10618 10618 10619 10620 10620 10621 10621 10622 10623 10624 10625 10625 10626 10628 10629 10630 10631 10633
10614 10613 10612 10612 10612 10611 10611 10611 10610 10609 10608 10607 10606 10606 10606 10605 10605 10604 10604 10604 10604 10603 10603 10603 10603 10603 10603 10603 10602 10603 10603 10603 10603 10603 10604 10604 10605 10606 10606 10606 10607 10607 10608 10609 10610 10611 10612 10613 10614 10616 10617 10618
10603 10602 10601 10601 10601 10599 10600 10600 10599 10598 10597 10596 10595 10594 10594 10594 10593 10592 10592 10591 10591 10590 10590 10590 10590 10590 10590 10590 10589 10589 10589 10589 10589 10589 10590 10590 10591 10591 10591 10592 10592 10592 10593 10594 10595 10596 10597 10598 10600 10601 10602 10603
10592 10591 10590 10590 10589 10588 10588 10589 10588 10587 10586 10585 10584 10583 10582 10582 10582 10581 10579 10579 10578 10578 10577 10577 10577 10576 10576 10576 10575 10575 10575 10575 10575 10575 10575 10576 10576 10576 10576 10576 10577 10577 10577 10578 10579 10580 10581 10582 10583 10585 10586 10587
10582 10580 10579 10579 10578 10576 10577 10579 10577 10576 10575 10574 10573 10571 10570 10569 10569 10568 10566 10566 10566 10565 10565 10564 10563 10563 10561 10561 10561 10560 10560 10560 10560 10560 10560 10560 10561 10561 10561 10561 10561 10561 10561 10561 10562 10563 10563 10564 10566 10568 10569 10570
10571 10569 10568 10568 10567 10565 10566 10567 10565 10564 10562 10561 10560 10557 10556 10556 10555 10554 10553 10553 10552 10552 10551 10550 10549 10548 10547 10546 10546 10545 10545 10545 10544 10544 10544 10544 10544 10545 10545 10544 10544 10544 10544 10544 10545 10545 10546 10547 10548 10550 10551 10552
10560 10559 10557 10556 10556 10554 10554 10555 10553 10551 10549 10548 10546 10544 10542 10543 10542 10541 10540 10539 10538 10538 10537 10535 10533 10532 10532 10531 10530 10529 10529 10529 10528 10527 10527 10527 10526 10526 10527 10527 10526 10526 10526 10526 10526 10527 10528 10528 10529 10531 10533 10534
10549 10547 10545 10544 10544 10542 10541 10542 10540 10537 10536 10535 10534 10532 10529 10528 10528 10527 10525 10525 10524 10523 10521 10520 10518 10516 10515 10514 10513 10513 10512 10511 10510 10510 10509 10509 10508 10508 10508 10508 10508 10507 10507 10507 10507 10508 10509 10508 10510 10512 10513 10514
10536 10533 10531 10531 10530 10529 10528 10527 10526 10524 10522 10521 10520 10518 10514 10512 10513 10512 10510 10510 10509 10508 10505 10503 10501 10499 10498 10497 10496 10495 10494 10493 10492 10491 10491 10490 10490 10489 10489 10489 10488 10487 10486 10487 10488 10488 10488 10488 10489 10491 10493 10493
10521 10519 10519 10518 10516 10514 10513 10512 10512 10510 10507 10506 10505 10503 10499 10497 10497 10496 10494 10494 10493 10490 10488 10486 10484 10483 10482 10480 10479 10477 10476 10475 10473 10472 10472 10471 10471 10470 10469 10469 10468 10466 10465 10466 10467 10467 10466 10466 10466 10468 10471 10471
10507 10506 10505 10504 10502 10500 10498 10498 10497 10495 10492 10490 10489 10487 10484 10481 10482 10480 10478 10477 10475 10472 10471 10469 10467 10466 10465 10463 10461 10459 10458 10456 10454 10453 10452 10452 10451 10449 10448 10448 10448 10445 10444 10444 10444 10444 10444 10443 10444 10445 10447 10449
10493 10492 10491 10490 10488 10487 10485 10483 10482 10479 10477 10476 10474 10472 10469 10468 10468 10465 10462 10461 10459 10456 10454 10453 10451 10450 10448 10446 10444 10442 10440 10438 10437 10435 10433 10432 10430 10429 10428 10428 10428 10425 10423 10423 10422 10422 10421 10420 10420 10422 10424 10426
10480 10478 10477 10477 10476 10474 10472 10470 10468 10466 10464 10462 10461 10458 10455 10455 10455 10451 10448 10446 10443 10441 10440 10438 10436 10433 10431 10430 10428 10426 10423 10421 10419 10417 10415 10413 10412 10410 10409 10408 10407 10405 10402 10402 10401 10401 10400 10398 10397 10398 10401 10404
10469 10467 10466 10466 10465 10463 10461 10458 10456 10454 10451 10449 10448 10446 10443 10442 10442 10438 10434 10431 10429 10427 10425 10423 10421 10418 10415 10413 10411 10409 10407 10404 10401 10399 10396 10395 10393 10392 10391 10389 10388 10386 10382 10380 10379 10379 10379 10377 10376 10375 10377 10381
10459 10457 10455 10454 10453 10452 10450 10447 10445 10442 10438 10436 10436 10434 10431 10430 10428 10425 10420 10417 10415 10412 10410 10409 10407 10404 10401 10398 10396 10393 10391 10388 10384 10381 10378 10376 10374 10373 10372 10371 10370 10368 10364 10359 10356 10357 10357 10357 10356 10355 10354 10357
10448 10447 10445 10443 10442 10440 10438 10435 10433 10430 10426 10425 10424 10421 10419 10418 10415 10412 10408 10405 10402 10399 10397 10396 10393 10391 10387 10384 10381 10379 10376 10373 10369 10366 10362 10358 10356 10356 10354 10351 10350 10349 10347 10343 10337 10335 10335 10335 10335 10335 10334 10334
10438 10437 10434 10432 10431 10429 10426 10424 10421 10419 10417 10416 10414 10410 10408 10406 10403 10400 10396 10393 10390 10388 10385 10383 10380 10378 10374 10370 10367 10364 10362 10359 10355 10351 10346 10343 10340 10338 10336 10333 10331 10329 10328 10326 10321 10317 10314 10312 10312 10313 10312 10312
10428 10426 10424 10423 10421 10419 10414 10411 10410 10408 10408 10407 10404 10400 10397 10394 10391 10387 10384 10382 10379 10376 10373 10369 10366 10363 10361 10358 10353 10349 10346 10343 10340 10336 10331 10327 10324 10321 10319 10316 10313 10309 10308 10307 10305 10302 10298 10292 10289 10289 10290 10290